CW3375 Weather Reports


time (UTC)temp
C
wind
direction
speed
KPH
gust
KPH
rain 1hr
cm
rain 24hr
cm
rain mn
cm
humidity
%
barometer
mb
20260503194532 22 298 3.2 14.5 0.00 0.00 0.00 99 1012.3
20260503193832 23 336 9.7 17.7 0.00 0.00 0.00 99 1012.3
20260503193132 23 296 6.4 27.4 0.00 0.00 0.00 99 1012.3
20260503192432 23 290 3.2 27.4 0.00 0.00 0.00 99 1012.3
20260503191733 23 275 8.0 29.0 0.00 0.00 0.00 99 1012.2
20260503191115 24 244 16.1 29.0 0.00 0.00 0.00 99 1012.3
20260503190332 25 330 6.4 22.5 0.00 0.00 0.00 99 1012.3
20260503185632 25 228 14.5 22.5 0.00 0.00 0.00 99 1012.3
20260503184932 23 227 11.3 22.5 0.00 0.00 0.00 99 1012.5
20260503184233 23 226 9.7 19.3 0.00 0.00 0.00 99 1012.6
20260503183532 23 226 12.9 17.7 0.00 0.00 0.00 99 1012.7
20260503182832 25 229 9.7 17.7 0.00 0.00 0.00 99 1012.8
20260503182133 25 129 8.0 12.9 0.00 0.00 0.00 99 1012.8
20260503181432 24 145 4.8 11.3 0.00 0.00 0.00 99 1012.8
20260503180733 23 114 4.8 9.7 0.00 0.00 0.00 99 1012.8
20260503180114 23 44 1.6 9.7 0.00 0.00 0.00 99 1012.9
20260503175332 24 272 3.2 14.5 0.00 0.00 0.00 99 1013.0
20260503174715 24 140 6.4 14.5 0.00 0.00 0.00 99 1013.1
20260503173932 24 78 3.2 12.9 0.00 0.00 0.00 99 1013.2
20260503173232 23 127 3.2 9.7 0.00 0.00 0.00 99 1013.3
20260503172532 23 17 1.6 11.3 0.00 0.00 0.00 99 1013.4
20260503171832 23 88 6.4 9.7 0.00 0.00 0.00 99 1013.4
20260503171132 23 195 1.6 9.7 0.00 0.00 0.00 99 1013.4
20260503170432 23 30 3.2 8.0 0.00 0.00 0.00 99 1013.4
20260503160132 18 61 1.6 6.4 0.00 0.00 0.00 97 1014.0
20260503150614 15 277 0.0 6.4 0.00 0.00 0.00 96 1014.1
20260503140232 10 120 1.6 4.8 0.00 0.00 0.00 94 1014.0
20260503131332 8 0.0 3.2 0.00 0.00 0.00 94 1013.7
20260503130632 8 128 0.0 3.2 0.00 0.00 0.00 94 1013.7
20260503110732 9 0.0 0.0 0.00 0.00 0.00 94 1013.8
20260503090132 11 350 1.6 3.2 0.00 0.00 0.00 94 1013.4
20260503081232 11 0.0 0.0 0.00 0.00 0.00 95 1013.4
20260503080615 11 0.0 0.0 0.00 0.00 0.00 95 1013.4
20260503072332 11 0.0 0.0 0.00 0.00 0.00 95 1013.3
20260503071632 11 0.0 0.0 0.00 0.00 0.00 95 1013.3
20260503071014 11 0.0 0.0 0.00 0.00 0.00 95 1013.2
20260503070232 11 0.0 0.0 0.00 0.00 0.00 95 1013.2
20260503054531 13 0.0 0.0 0.00 0.00 0.05 95 1012.9
20260503053914 13 0.0 3.2 0.00 0.00 0.05 95 1012.9
20260503053132 13 189 1.6 6.4 0.00 0.00 0.05 95 1012.9
20260503052432 13 208 3.2 9.7 0.00 0.00 0.05 95 1012.9
20260503051731 13 221 6.4 8.0 0.00 0.00 0.05 95 1013.0
20260503051032 13 212 3.2 11.3 0.00 0.00 0.05 96 1013.0
20260503050332 13 218 4.8 11.3 0.00 0.00 0.05 96 1013.0
20260503045632 13 229 8.0 11.3 0.00 0.00 0.05 96 1013.0
20260503045014 14 223 8.0 12.9 0.00 0.00 0.05 96 1013.0
20260503044315 14 227 11.3 12.9 0.00 0.00 0.05 96 1013.0
20260503043532 14 227 6.4 8.0 0.00 0.00 0.05 96 1012.9
20260503042831 14 230 4.8 11.3 0.00 0.00 0.05 96 1012.8
20260503042131 14 225 4.8 11.3 0.00 0.00 0.05 96 1012.8
20260503041431 15 190 0.0 3.2 0.00 0.00 0.05 96 1012.7
20260503040815 15 180 1.6 4.8 0.00 0.00 0.05 96 1012.6
20260503040032 15 0.0 8.0 0.00 0.00 0.05 96 1012.5
20260503035332 15 233 4.8 8.0 0.00 0.00 0.05 96 1012.4
20260503034714 15 241 3.2 6.4 0.00 0.00 0.05 96 1012.3
20260503033932 15 218 4.8 6.4 0.00 0.00 0.05 96 1012.3
20260503033231 16 154 1.6 9.7 0.00 0.00 0.05 96 1012.2
20260503032614 16 225 4.8 9.7 0.00 0.00 0.05 96 1012.2
20260503031832 16 231 8.0 11.3 0.00 0.00 0.05 96 1012.3
20260503031132 16 203 1.6 8.0 0.00 0.00 0.05 97 1012.2
20260503030432 17 145 3.2 4.8 0.00 0.00 0.05 97 1012.1
20260503025732 17 203 0.0 4.8 0.00 0.00 0.05 97 1012.1
20260503025031 17 208 1.6 6.4 0.00 0.00 0.05 97 1012.1
20260503024332 18 212 4.8 9.7 0.00 0.00 0.05 97 1012.1
20260503023714 18 163 1.6 6.4 0.00 0.00 0.05 97 1012.1
20260503022931 18 206 3.2 8.0 0.00 0.00 0.05 97 1012.1
20260503022231 18 222 6.4 9.7 0.00 0.00 0.05 97 1012.2
20260503021532 18 215 6.4 11.3 0.00 0.00 0.05 97 1012.2
20260503020832 18 159 8.0 11.3 0.00 0.00 0.05 97 1012.2
20260503020132 19 220 8.0 14.5 0.00 0.00 0.05 97 1012.3
20260503015431 19 212 9.7 19.3 0.00 0.00 0.05 98 1012.3
20260503014732 20 221 12.9 19.3 0.00 0.00 0.05 98 1012.4
20260503014031 21 224 9.7 12.9 0.00 0.00 0.05 98 1012.5
20260503013332 22 212 3.2 8.0 0.00 0.00 0.05 98 1012.6
20260503012631 22 203 6.4 12.9 0.00 0.00 0.05 99 1012.6
20260503011932 22 256 6.4 14.5 0.00 0.00 0.05 99 1012.6
20260503011314 22 360 1.6 19.3 0.00 0.00 0.05 99 1012.6
20260503010532 22 248 8.0 19.3 0.00 0.00 0.05 99 1012.7
20260503005832 23 245 6.4 27.4 0.00 0.00 0.05 99 1012.7
20260503005131 23 302 8.0 27.4 0.00 0.00 0.05 99 1012.7
20260503004432 23 347 4.8 24.1 0.00 0.00 0.05 99 1012.7
20260503003731 23 293 8.0 24.1 0.00 0.00 0.05 99 1012.7
20260503003031 23 323 3.2 20.9 0.00 0.00 0.05 99 1012.8
20260503002332 23 294 4.8 14.5 0.00 0.00 0.05 99 1012.7
20260503001631 23 338 9.7 19.3 0.00 0.00 0.05 99 1012.8
20260503000931 23 268 4.8 14.5 0.00 0.00 0.05 99 1012.8
20260503000314 23 299 6.4 14.5 0.00 0.00 0.05 99 1012.9
20260502235531 23 292 3.2 17.7 0.00 0.00 0.05 99 1013.0
20260502234831 23 313 9.7 17.7 0.00 0.00 0.05 99 1013.0
20260502234131 23 292 8.0 19.3 0.00 0.00 0.05 99 1013.1
20260502233432 23 319 8.0 19.3 0.00 0.00 0.05 99 1013.2
20260502232731 23 301 4.8 11.3 0.00 0.00 0.05 99 1013.3
20260502232031 23 316 8.0 22.5 0.00 0.00 0.05 99 1013.3
20260502231415 23 277 6.4 22.5 0.00 0.00 0.05 99 1013.3
20260502230631 23 304 9.7 19.3 0.00 0.00 0.05 99 1013.4
20260502225931 23 307 8.0 19.3 0.00 0.00 0.05 99 1013.5
20260502225315 22 287 6.4 14.5 0.00 0.00 0.05 99 1013.6
20260502224531 22 285 6.4 12.9 0.00 0.00 0.05 99 1013.8
20260502223831 22 290 8.0 19.3 0.00 0.00 0.05 99 1013.9
20260502223132 22 284 8.0 22.5 0.00 0.00 0.05 99 1014.1
20260502222431 22 323 9.7 19.3 0.00 0.00 0.05 99 1014.2
20260502221731 22 311 4.8 14.5 0.00 0.00 0.05 99 1014.2
20260502221031 23 283 8.0 22.5 0.00 0.00 0.05 99 1014.3
20260502220331 22 287 6.4 24.1 0.00 0.00 0.05 99 1014.3
20260502215631 22 326 9.7 24.1 0.00 0.00 0.05 99 1014.3
20260502214931 22 309 6.4 12.9 0.00 0.00 0.05 99 1014.5
20260502214232 23 299 4.8 16.1 0.00 0.00 0.05 99 1014.5
20260502213531 22 277 3.2 17.7 0.00 0.00 0.05 99 1014.6
20260502212831 22 290 11.3 32.2 0.00 0.00 0.05 98 1014.8
20260502212132 22 329 11.3 32.2 0.00 0.00 0.05 98 1014.8
20260502211431 22 323 8.0 25.7 0.00 0.00 0.05 98 1014.8
20260502210731 22 307 8.0 24.1 0.00 0.00 0.05 98 1014.8
20260502210032 22 346 14.5 24.1 0.00 0.00 0.05 99 1014.9
20260502205414 22 277 6.4 12.9 0.00 0.00 0.05 99 1015.0
20260502204714 22 320 6.4 16.1 0.00 0.00 0.05 98 1015.1
20260502203932 21 295 4.8 16.1 0.00 0.00 0.05 98 1015.1
20260502203231 21 263 8.0 20.9 0.00 0.00 0.05 98 1015.2
20260502202532 21 297 8.0 20.9 0.00 0.00 0.05 98 1015.2
20260502201831 21 299 8.0 19.3 0.00 0.00 0.05 98 1015.3
20260502201131 21 291 6.4 27.4 0.00 0.00 0.05 98 1015.3
20260502200432 21 274 8.0 25.7 0.00 0.00 0.05 98 1015.4
20260502195732 21 294 8.0 17.7 0.00 0.00 0.05 98 1015.4
20260502195031 21 327 9.7 17.7 0.00 0.00 0.05 98 1015.5